FW8707 Weather Reports


Display with metric or nautical units.
time (UTC)temp
F
wind
direction
speed
MPH
gust
MPH
rain 1hr
in
rain 24hr
in
rain mn
in
humidity
%
barometer
mb
20260503032508 58 270 1.0 2.0 0.00 0.00 0.00 21 1016.9
20260503032016 58 270 0.0 2.0 0.00 0.00 0.00 22 1016.8
20260503031528 58 270 0.0 4.0 0.00 0.00 0.00 22 1016.8
20260503031010 58 270 1.0 5.0 0.00 0.00 0.00 22 1016.8
20260503030509 58 270 1.0 5.0 0.00 0.00 0.00 21 1016.8
20260503030025 58 270 2.0 4.0 0.00 0.00 0.00 20 1016.7
20260503025507 59 270 0.0 2.0 0.00 0.00 0.00 21 1016.7
20260503025007 59 270 0.0 1.0 0.00 0.00 0.00 22 1016.7
20260503024516 60 270 0.0 0.0 0.00 0.00 0.00 24 1016.7
20260503024009 61 270 0.0 0.0 0.00 0.00 0.00 23 1016.6
20260503023507 61 270 0.0 0.0 0.00 0.00 0.00 22 1016.5
20260503023016 62 270 0.0 0.0 0.00 0.00 0.00 20 1016.6
20260503022510 62 270 0.0 0.0 0.00 0.00 0.00 20 1016.5
20260503022013 63 270 0.0 1.0 0.00 0.00 0.00 19 1016.5
20260503021524 63 270 0.0 1.0 0.00 0.00 0.00 19 1016.5
20260503021010 64 270 0.0 0.0 0.00 0.00 0.00 19 1016.5
20260503020513 64 270 0.0 0.0 0.00 0.00 0.00 21 1016.5
20260503020024 65 270 0.0 0.0 0.00 0.00 0.00 19 1016.4
20260503015509 66 286 0.0 1.0 0.00 0.00 0.00 15 1016.4
20260503014528 67 270 0.0 0.0 0.00 0.00 0.00 17 1016.3
20260503014010 67 270 0.0 0.0 0.00 0.00 0.00 16 1016.3
20260503013506 67 285 0.0 0.0 0.00 0.00 0.00 14 1016.3
20260503013017 68 285 0.0 1.0 0.00 0.00 0.00 13 1016.3
20260503012507 68 286 0.0 1.0 0.00 0.00 0.00 12 1016.2
20260503012009 68 285 0.0 1.0 0.00 0.00 0.00 12 1016.5
20260503011522 68 285 0.0 1.0 0.00 0.00 0.00 12 1016.6
20260503011010 69 285 0.0 2.0 0.00 0.00 0.00 12 1016.5
20260503010510 69 285 0.0 2.0 0.00 0.00 0.00 12 1016.5
20260503010031 69 286 0.0 3.0 0.00 0.00 0.00 12 1016.5
20260503005511 69 282 0.0 3.0 0.00 0.00 0.00 11 1016.4
20260503005011 69 286 0.0 2.0 0.00 0.00 0.00 12 1016.4
20260503004526 69 283 0.0 2.0 0.00 0.00 0.00 11 1016.3
20260503002010 70 286 0.0 5.0 0.00 0.00 0.00 12 1016.3
20260503001521 71 283 2.0 7.0 0.00 0.00 0.00 11 1016.3
20260503001008 71 67 3.0 8.0 0.00 0.00 0.00 11 1016.3
20260503000512 72 126 4.0 8.0 0.00 0.00 0.00 11 1016.4
20260503000039 72 41 1.0 4.0 0.00 0.00 0.00 11 1016.5
20260502235509 72 57 1.0 4.0 0.00 0.00 0.00 12 1016.5
20260502235007 72 245 0.0 5.0 0.00 0.00 0.00 12 1016.4
20260502234526 72 235 1.0 8.0 0.00 0.00 0.00 12 1016.5
20260502234011 72 2 1.0 10.0 0.00 0.00 0.00 12 1016.5
20260502233029 73 30 0.0 4.0 0.00 0.00 0.00 12 1016.7
20260502232509 73 219 1.0 5.0 0.00 0.00 0.00 13 1016.7
20260502232013 73 25 1.0 9.0 0.00 0.00 0.00 12 1016.7
20260502231533 73 54 3.0 9.0 0.00 0.00 0.00 12 1016.7
20260502231009 73 67 2.0 8.0 0.00 0.00 0.00 12 1016.7
20260502230507 73 59 0.0 5.0 0.00 0.00 0.00 12 1016.7
20260502230024 73 31 1.0 5.0 0.00 0.00 0.00 11 1016.7
20260502225511 74 69 2.0 4.0 0.00 0.00 0.00 13 1016.7
20260502225013 74 173 1.0 5.0 0.00 0.00 0.00 12 1016.7
20260502224523 74 138 0.0 5.0 0.00 0.00 0.00 12 1016.7
20260502224014 74 172 1.0 5.0 0.00 0.00 0.00 12 1016.8
20260502223510 74 346 1.0 5.0 0.00 0.00 0.00 11 1016.8
20260502223029 74 220 2.0 8.0 0.00 0.00 0.00 13 1017.0
20260502222509 74 201 0.0 8.0 0.00 0.00 0.00 12 1016.9
20260502222010 74 275 3.0 7.0 0.00 0.00 0.00 11 1017.0
20260502221528 74 73 1.0 9.0 0.00 0.00 0.00 14 1017.1
20260502221011 74 47 3.0 9.0 0.00 0.00 0.00 12 1017.1
20260502220512 74 297 1.0 7.0 0.00 0.00 0.00 12 1017.2
20260502220027 74 66 3.0 7.0 0.00 0.00 0.00 13 1017.3
20260502215507 74 13 0.0 9.0 0.00 0.00 0.00 13 1017.5
20260502215013 74 53 1.0 9.0 0.00 0.00 0.00 12 1017.7
20260502214521 74 65 5.0 9.0 0.00 0.00 0.00 12 1017.8
20260502214013 75 111 1.0 7.0 0.00 0.00 0.00 13 1018.0
20260502213511 74 81 1.0 7.0 0.00 0.00 0.00 12 1018.0
20260502213026 74 71 2.0 8.0 0.00 0.00 0.00 12 1018.2
20260502212508 75 65 3.0 8.0 0.00 0.00 0.00 12 1018.2
20260502212011 75 98 0.0 5.0 0.00 0.00 0.00 14 1018.3
20260502211533 75 66 1.0 7.0 0.00 0.00 0.00 13 1018.4
20260502211011 75 96 3.0 9.0 0.00 0.00 0.00 13 1018.4
20260502210512 75 218 2.0 9.0 0.00 0.00 0.00 14 1018.5
20260502210024 75 177 2.0 9.0 0.00 0.00 0.00 14 1018.5
20260502205510 76 233 0.0 8.0 0.00 0.00 0.00 12 1018.6
20260502205015 75 210 2.0 9.0 0.00 0.00 0.00 14 1018.7
20260502204528 75 166 1.0 10.0 0.00 0.00 0.00 14 1018.7
20260502204009 75 57 4.0 10.0 0.00 0.00 0.00 13 1018.7
20260502203508 75 166 0.0 8.0 0.00 0.00 0.00 14 1018.7
20260502203026 75 67 3.0 8.0 0.00 0.00 0.00 14 1018.8
20260502202508 75 168 1.0 9.0 0.00 0.00 0.00 14 1018.9
20260502202007 74 61 2.0 10.0 0.00 0.00 0.00 14 1018.9
20260502201525 75 53 3.0 10.0 0.00 0.00 0.00 17 1018.9
20260502201009 74 54 1.0 10.0 0.00 0.00 0.00 14 1019.0
20260502200512 74 228 4.0 10.0 0.00 0.00 0.00 14 1019.2
20260502200026 74 167 1.0 9.0 0.00 0.00 0.00 15 1019.1
20260502195513 74 227 2.0 9.0 0.00 0.00 0.00 15 1019.1
20260502195013 74 63 3.0 9.0 0.00 0.00 0.00 14 1019.2
20260502194527 74 161 2.0 8.0 0.00 0.00 0.00 15 1019.4
20260502194009 74 68 1.0 6.0 0.00 0.00 0.00 15 1019.3
20260502193509 74 48 1.0 8.0 0.00 0.00 0.00 16 1019.4
20260502193023 74 212 0.0 8.0 0.00 0.00 0.00 15 1019.5
20260502192513 74 79 0.0 7.0 0.00 0.00 0.00 15 1019.6
20260502192013 74 258 1.0 5.0 0.00 0.00 0.00 17 1019.7
20260502191525 73 250 1.0 7.0 0.00 0.00 0.00 17 1019.7
20260502191008 72 194 2.0 8.0 0.00 0.00 0.00 18 1019.8
20260502190513 72 58 4.0 9.0 0.00 0.00 0.00 17 1020.0
20260502190040 72 69 2.0 10.0 0.00 0.00 0.00 16 1020.0
20260502185508 73 116 2.0 10.0 0.00 0.00 0.00 17 1020.0
20260502185012 72 33 2.0 6.0 0.00 0.00 0.00 16 1020.1
20260502184528 72 212 0.0 6.0 0.00 0.00 0.00 18 1020.2
20260502184011 72 181 1.0 7.0 0.00 0.00 0.00 16 1020.3
20260502183514 72 233 1.0 9.0 0.00 0.00 0.00 17 1020.4
20260502183027 72 188 3.0 9.0 0.00 0.00 0.00 17 1020.4
20260502182509 72 42 0.0 10.0 0.00 0.00 0.00 17 1020.5
20260502182010 71 162 1.0 10.0 0.00 0.00 0.00 17 1020.6
20260502181510 71 74 1.0 8.0 0.00 0.00 0.00 16 1020.6
20260502181007 70 219 1.0 9.0 0.00 0.00 0.00 19 1020.7
20260502180504 70 72 3.0 9.0 0.00 0.00 0.00 17 1020.8
20260502170509 68 54 1.0 6.0 0.00 0.00 0.00 20 1021.4
20260502164007 67 107 3.0 7.0 0.00 0.00 0.00 19 1021.4
20260502163505 67 45 2.0 7.0 0.00 0.00 0.00 18 1021.6
20260502161012 67 71 1.0 4.0 0.00 0.00 0.00 23 1021.6
20260502160513 66 35 0.0 9.0 0.00 0.00 0.00 25 1021.6
20260502152009 60 49 0.0 5.0 0.00 0.00 0.00 31 1021.9
20260502151005 59 234 0.0 4.0 0.00 0.00 0.00 35 1021.9
20260502130508 38 270 0.0 0.0 0.00 0.00 0.00 62 1022.4
20260502123507 34 302 0.0 0.0 0.00 0.00 0.00 67 1022.1
20260502123024 33 303 0.0 0.0 0.00 0.00 0.00 66 1022.2
20260502122508 33 302 0.0 0.0 0.00 0.00 0.00 66 1022.1
20260502122012 33 270 0.0 0.0 0.00 0.00 0.00 66 1021.9
20260502121520 33 302 0.0 0.0 0.00 0.00 0.00 65 1022.0
20260502121007 33 302 0.0 0.0 0.00 0.00 0.00 66 1021.9
20260502120508 33 302 0.0 0.0 0.00 0.00 0.00 66 1022.0
20260502115507 34 302 0.0 0.0 0.00 0.00 0.00 65 1021.9
20260502115006 34 302 0.0 0.0 0.00 0.00 0.00 65 1022.0
20260502114519 34 302 0.0 0.0 0.00 0.00 0.00 64 1022.1
20260502114008 35 302 0.0 0.0 0.00 0.00 0.00 64 1022.1
20260502113508 35 302 0.0 0.0 0.00 0.00 0.00 64 1022.1
20260502113032 35 302 0.0 0.0 0.00 0.00 0.00 64 1022.2
20260502112509 35 302 0.0 0.0 0.00 0.00 0.00 63 1022.1
20260502112008 35 302 0.0 0.0 0.00 0.00 0.00 62 1022.2
20260502111522 36 302 0.0 0.0 0.00 0.00 0.00 62 1022.1
20260502111008 36 302 0.0 0.0 0.00 0.00 0.00 61 1022.1
20260502110508 36 302 0.0 0.0 0.00 0.00 0.00 61 1022.2
20260502110032 36 302 0.0 0.0 0.00 0.00 0.00 61 1022.2
20260502105507 36 302 0.0 0.0 0.00 0.00 0.00 61 1022.3
20260502105007 36 302 0.0 0.0 0.00 0.00 0.00 61 1022.2
20260502104519 36 302 0.0 0.0 0.00 0.00 0.00 61 1022.2
20260502104010 37 302 0.0 1.0 0.00 0.00 0.00 61 1022.2
20260502102509 37 302 0.0 0.0 0.00 0.00 0.00 61 1022.1
20260502102012 38 302 0.0 0.0 0.00 0.00 0.00 59 1022.1
20260502101525 38 302 0.0 0.0 0.00 0.00 0.00 57 1022.1
20260502101010 38 302 0.0 0.0 0.00 0.00 0.00 57 1022.0
20260502100507 38 302 0.0 0.0 0.00 0.00 0.00 57 1022.0
20260502091520 41 302 0.0 0.0 0.00 0.00 0.00 54 1021.6
20260502091008 41 302 0.0 0.0 0.00 0.00 0.00 53 1021.6
20260502090515 41 302 0.0 0.0 0.00 0.00 0.00 53 1021.6
20260502071515 44 279 3.0 7.0 0.00 0.00 0.00 46 1021.8
20260502071009 44 270 2.0 7.0 0.00 0.00 0.00 47 1021.8
20260502070510 44 288 2.0 5.0 0.00 0.00 0.00 47 1021.8
20260502070036 44 275 2.0 7.0 0.00 0.00 0.00 47 1021.8
20260502065510 45 288 3.0 8.0 0.00 0.00 0.00 46 1021.8
20260502065010 45 275 3.0 8.0 0.00 0.00 0.00 46 1021.8
20260502064524 45 275 2.0 7.0 0.00 0.00 0.00 46 1021.8
20260502064010 45 279 2.0 7.0 0.00 0.00 0.00 46 1021.9
20260502063510 45 279 2.0 7.0 0.00 0.00 0.00 45 1021.9
20260502063035 45 270 3.0 7.0 0.00 0.00 0.00 46 1021.9
20260502062509 45 279 2.0 7.0 0.00 0.00 0.00 46 1021.9
20260502062015 45 270 3.0 7.0 0.00 0.00 0.00 45 1021.9
20260502061514 45 288 3.0 5.0 0.00 0.00 0.00 44 1021.9
20260502061010 46 279 2.0 5.0 0.00 0.00 0.00 44 1021.9
20260502060507 46 275 2.0 5.0 0.00 0.00 0.00 43 1021.9
20260502060018 46 279 0.0 5.0 0.00 0.00 0.00 43 1021.9
20260502055509 46 275 2.0 5.0 0.00 0.00 0.00 43 1021.8
20260502055008 46 287 2.0 5.0 0.00 0.00 0.00 43 1021.8
20260502054518 46 279 2.0 5.0 0.00 0.00 0.00 43 1021.7
20260502054003 46 275 1.0 5.0 0.00 0.00 0.00 43 1021.7
20260502053504 47 279 0.0 5.0 0.00 0.00 0.00 43 1021.8
20260502053007 47 275 0.0 5.0 0.00 0.00 0.00 43 1021.7
20260502052507 47 275 2.0 5.0 0.00 0.00 0.00 42 1021.7
20260502052006 47 287 2.0 7.0 0.00 0.00 0.00 42 1021.7
20260502051508 47 287 1.0 7.0 0.00 0.00 0.00 42 1021.7
20260502051008 47 279 1.0 4.0 0.00 0.00 0.00 42 1021.8
20260502050508 47 275 1.0 4.0 0.00 0.00 0.00 42 1021.7
20260502050024 47 279 0.0 3.0 0.00 0.00 0.00 42 1021.7
20260502045509 47 279 1.0 4.0 0.00 0.00 0.00 42 1021.7
20260502045008 47 275 0.0 4.0 0.00 0.00 0.00 41 1021.7
20260502044517 47 270 1.0 4.0 0.00 0.00 0.00 41 1021.7
20260502044008 47 270 2.0 4.0 0.00 0.00 0.00 41 1021.6
20260502043503 48 275 0.0 0.0 0.00 0.00 0.00 40 1021.6
20260502043006 48 275 0.0 0.0 0.00 0.00 0.00 40 1021.6
20260502042503 48 275 0.0 2.0 0.00 0.00 0.00 40 1021.6
20260502042005 48 275 0.0 3.0 0.00 0.00 0.00 39 1021.5
20260502041507 48 275 0.0 3.0 0.00 0.00 0.00 39 1021.5
20260502041005 48 279 0.0 2.0 0.00 0.00 0.00 40 1021.4
20260502040506 48 281 0.0 1.0 0.00 0.00 0.00 41 1021.4
20260502040012 48 281 0.0 1.0 0.00 0.00 0.00 42 1021.3
20260502035506 49 281 0.0 1.0 0.00 0.00 0.00 40 1021.2
20260502035007 49 281 0.0 1.0 0.00 0.00 0.00 38 1021.1
20260502034522 49 281 0.0 1.0 0.00 0.00 0.00 36 1021.1
20260502034010 50 281 0.0 1.0 0.00 0.00 0.00 36 1021.1
20260502033512 50 282 0.0 0.0 0.00 0.00 0.00 36 1021.0
20260502033021 51 270 0.0 0.0 0.00 0.00 0.00 35 1020.9